Fulton Cnty AP, Rochester, IN, IN

11:17 AM EDT on March 29, 2017 (GMT -0400)
Fulton County

Weather History for KRCR - May, 2014

Change the Weather History Date:

Tuesday, May 13, 2014

  Actual Average Record
Temperature  
Mean Temperature 67 °F -  
Max Temperature 77 °F 69 °F 77 °F (2014)
Min Temperature 57 °F 46 °F 33 °F (2013)
Cooling Degree Days 2    
Growing Degree Days 17 (Base 50)    
Moisture  
Dew Point 63 °F    
Average Humidity 84    
Maximum Humidity 100    
Minimum Humidity 73    
Precipitation  
Precipitation 0.18 in - - ()
Sea Level Pressure  
Sea Level Pressure 29.99 in    
Wind  
Wind Speed 8 mph (SW)    
Max Wind Speed 14 mph    
Max Gust Speed 23 mph    
Visibility 9 miles    
Events Rain , Thunderstorm    
Averages and records for this station are not official NWS values.
T = Trace of Precipitation, MM = Missing Value Source: NWS Daily Summary

Daily Weather History Graph

Daily Weather History Graph

Search for Another Location

Airport or City:

Trip Planner

Search our weather history database for the weather conditions in past years. The results will help you decide how hot, cold, wet, or windy it might be!

Date:

Astronomy

May. 13, 2014 Rise Set
Actual Time 6:28 AM EDT 8:54 PM EDT
Civil Twilight 5:57 AM EDT 9:25 PM EDT
Nautical Twilight 5:19 AM EDT 10:03 PM EDT
Astronomical Twilight 4:36 AM EDT 10:47 PM EDT
Moon 7:54 PM EDT (5/13) 5:45 AM EDT (5/13)
Length of Visible Light 15h 27m
Length of Day
14h 25m
Waxing Gibbous, 98% of the Moon is Illuminated
May 13
Waxing Gibbous
May 14
Full
May 21
Last Quarter
May 28
New
Jun 5
First Quarter

Hourly Weather History & Observations

Time (EDT) Temp. Dew Point Humidity Pressure Visibility Wind Dir Wind Speed Gust Speed Precip Events Conditions
12:15 AM 73.4 °F 68.0 °F 83% 29.96 in 10.0 mi South 8.1 mph - N/A   Clear
12:35 AM 73.4 °F 68.0 °F 83% 29.97 in 10.0 mi South 6.9 mph - N/A   Clear
12:55 AM 73.4 °F 68.0 °F 83% 29.96 in 10.0 mi South 6.9 mph - N/A Thunderstorm Clear
1:15 AM 73.4 °F 68.0 °F 83% 29.97 in 10.0 mi South 8.1 mph - N/A   Clear
1:35 AM 73.4 °F 68.0 °F 83% 29.96 in 10.0 mi South 6.9 mph - N/A   Clear
1:55 AM 73.4 °F 68.0 °F 83% 29.95 in 10.0 mi South 8.1 mph - N/A Thunderstorm Clear
2:15 AM 73.4 °F 68.0 °F 83% 29.94 in 10.0 mi South 9.2 mph - N/A Thunderstorm Clear
2:35 AM 73.4 °F 66.2 °F 78% 29.94 in 10.0 mi South 10.4 mph - N/A Thunderstorm Scattered Clouds
2:55 AM 73.4 °F 66.2 °F 78% 29.93 in 10.0 mi South 11.5 mph 17.3 mph N/A   Mostly Cloudy
3:15 AM 73.4 °F 66.2 °F 78% 29.93 in 10.0 mi SSW 8.1 mph - N/A Thunderstorm Overcast
3:35 AM 73.4 °F 66.2 °F 78% 29.93 in 10.0 mi SSW 10.4 mph - N/A   Mostly Cloudy
3:55 AM 71.6 °F 68.0 °F 88% 29.93 in 7.0 mi SSW 9.2 mph - 0.03 in Rain Light Rain
4:15 AM 69.8 °F 66.2 °F 88% 29.93 in 5.0 mi SW 8.1 mph - 0.04 in Rain Heavy Rain
4:35 AM 69.8 °F 66.2 °F 88% 29.94 in 10.0 mi SW 8.1 mph - 0.05 in Rain , Thunderstorm Rain
4:55 AM 68.0 °F 64.4 °F 88% 29.95 in 10.0 mi SW 9.2 mph - 0.07 in Rain , Thunderstorm Light Thunderstorms and Rain
5:15 AM 68.0 °F 66.2 °F 94% 29.95 in 10.0 mi SW 4.6 mph - N/A Rain , Thunderstorm Light Thunderstorms and Rain
5:35 AM 68.0 °F 66.2 °F 94% 29.94 in 10.0 mi Calm Calm - 0.01 in Thunderstorm Mostly Cloudy
5:55 AM 68.0 °F 68.0 °F 100% 29.94 in 10.0 mi Calm Calm - 0.01 in   Mostly Cloudy
6:15 AM 68.0 °F 68.0 °F 100% 29.93 in 10.0 mi SSE 3.5 mph - N/A   Overcast
6:35 AM 68.0 °F 68.0 °F 100% 29.93 in 10.0 mi SE 3.5 mph - N/A   Overcast
6:55 AM 68.0 °F 68.0 °F 100% 29.93 in 10.0 mi SE 4.6 mph - N/A Rain , Thunderstorm Light Thunderstorms and Rain
7:15 AM 68.0 °F 68.0 °F 100% 29.94 in 10.0 mi SSE 4.6 mph - N/A   Scattered Clouds
7:35 AM 68.0 °F 68.0 °F 100% 29.94 in 10.0 mi SSE 3.5 mph - N/A   Mostly Cloudy
7:55 AM 68.0 °F 68.0 °F 100% 29.94 in 10.0 mi SSE 5.8 mph - N/A   Scattered Clouds
9:15 AM 73.4 °F 68.0 °F 83% 29.93 in 10.0 mi South 9.2 mph - N/A   Scattered Clouds
9:35 AM 75.2 °F 68.0 °F 78% 29.93 in 10.0 mi South 8.1 mph 16.1 mph N/A   Clear
10:15 AM 77.0 °F 68.0 °F 74% 29.93 in 10.0 mi South 10.4 mph - N/A   Scattered Clouds
11:55 AM 71.6 °F 66.2 °F 83% 29.95 in 5.0 mi West 12.7 mph 23.0 mph 0.06 in Rain Light Rain
12:35 PM 71.6 °F 68.0 °F 88% 29.97 in 7.0 mi WSW 10.4 mph 17.3 mph N/A Rain Light Rain
1:15 PM 71.6 °F 68.0 °F 88% 29.97 in 10.0 mi WSW 6.9 mph - N/A   Scattered Clouds
1:35 PM 71.6 °F 68.0 °F 88% 29.97 in 10.0 mi SW 12.7 mph 16.1 mph N/A   Mostly Cloudy
1:55 PM 71.6 °F 66.2 °F 83% 29.97 in 10.0 mi WSW 10.4 mph - N/A   Mostly Cloudy
2:15 PM 71.6 °F 66.2 °F 83% 29.98 in 7.0 mi WSW 10.4 mph 16.1 mph N/A Rain Rain
2:35 PM 71.6 °F 68.0 °F 88% 29.98 in 7.0 mi SSW 6.9 mph - 0.01 in Rain Light Rain
2:55 PM 73.4 °F 68.0 °F 83% 29.98 in 10.0 mi WSW 11.5 mph 16.1 mph 0.01 in   Scattered Clouds
3:15 PM 71.6 °F 64.4 °F 78% 29.99 in 10.0 mi West 13.8 mph 19.6 mph N/A Rain Light Rain
3:35 PM 71.6 °F 64.4 °F 78% 29.99 in 10.0 mi West 10.4 mph 17.3 mph N/A   Mostly Cloudy
3:55 PM 69.8 °F 62.6 °F 78% 30.00 in 10.0 mi West 9.2 mph 19.6 mph N/A   Mostly Cloudy
4:15 PM 69.8 °F 62.6 °F 78% 29.99 in 10.0 mi West 10.4 mph 17.3 mph N/A Rain Light Rain
4:35 PM 69.8 °F 62.6 °F 78% 30.00 in 10.0 mi West 12.7 mph 19.6 mph N/A   Mostly Cloudy
4:55 PM 69.8 °F 62.6 °F 78% 30.01 in 10.0 mi West 8.1 mph 17.3 mph N/A   Overcast
5:15 PM 68.0 °F 60.8 °F 78% 30.01 in 10.0 mi West 12.7 mph 18.4 mph N/A   Mostly Cloudy
5:35 PM 68.0 °F 60.8 °F 78% 30.02 in 10.0 mi West 8.1 mph 17.3 mph N/A   Scattered Clouds
5:55 PM 66.2 °F 59.0 °F 78% 30.03 in 10.0 mi West 12.7 mph 19.6 mph N/A   Mostly Cloudy
6:15 PM 64.4 °F 59.0 °F 83% 30.04 in 10.0 mi West 12.7 mph - N/A   Overcast
6:55 PM 64.4 °F 55.4 °F 73% 30.05 in 7.0 mi West 9.2 mph 16.1 mph N/A Rain Light Rain
7:15 PM 62.6 °F 59.0 °F 88% 30.05 in 4.0 mi West 9.2 mph 17.3 mph N/A   Mostly Cloudy
7:35 PM 60.8 °F 57.2 °F 88% 30.05 in 5.0 mi NW 11.5 mph - N/A   Overcast
7:55 PM 60.8 °F 55.4 °F 82% 30.06 in 10.0 mi WNW 10.4 mph - N/A   Overcast
8:15 PM 60.8 °F 55.4 °F 82% 30.07 in 10.0 mi NW 8.1 mph - N/A   Overcast
8:35 PM 59.0 °F 53.6 °F 82% 30.07 in 10.0 mi WNW 9.2 mph - N/A   Mostly Cloudy
8:55 PM 59.0 °F 53.6 °F 82% 30.08 in 10.0 mi WNW 10.4 mph - N/A   Mostly Cloudy
9:15 PM 59.0 °F 51.8 °F 77% 30.09 in 10.0 mi West 6.9 mph - N/A   Scattered Clouds
9:35 PM 59.0 °F 51.8 °F 77% 30.10 in 10.0 mi West 4.6 mph - N/A   Scattered Clouds
9:55 PM 59.0 °F 51.8 °F 77% 30.10 in 10.0 mi WNW 8.1 mph - N/A   Mostly Cloudy
10:15 PM 59.0 °F 51.8 °F 77% 30.12 in 10.0 mi WNW 6.9 mph - N/A   Overcast
10:35 PM 59.0 °F 51.8 °F 77% 30.13 in 10.0 mi WNW 8.1 mph - N/A   Overcast
10:55 PM 57.2 °F 51.8 °F 82% 30.13 in 10.0 mi WNW 9.2 mph - N/A   Overcast
11:15 PM 57.2 °F 51.8 °F 82% 30.13 in 10.0 mi WNW 6.9 mph - N/A   Overcast
11:35 PM 57.2 °F 51.8 °F 82% 30.13 in 10.0 mi West 6.9 mph - N/A Rain Light Rain